Regional Weather Roundup
Issued by NWS Grand Forks, ND

Home | Current Version | Previous Version | Graphics & Text | Print | Product List | Glossary Off
Versions: 1 2 3 4 5 6 7 8 9 10 11 12 13 14 15 16 17 18 19 20 21 22 23 24 25 26 27 28 29 30 31 32 33 34 35 36 37 38 39 40 41 42 43 44 45 46 47 48 49 50

000
ASUS43 KFGF 291131
RWRFGF
PRAIRIE TO PINES  WEATHER ROUNDUP
NATIONAL WEATHER SERVICE EASTERN NORTH DAKOTA/GRAND FORKS ND
600 AM CDT SUN MAY 29 2016

 **SATELLITE DATA USED TO AUGMENT SKY COVER AT AUTOMATED STATIONS**
 *****  WEATHER ACROSS EASTERN NORTH DAKOTA  *****

CITY           SKY/WX    TMP DP  RH WIND       PRES   REMARKS
GRAND FORKS    CLOUDY    59  56  89 N9        29.89R
GRAND FRKS AFB CLOUDY    57  57 100 NW10      29.91R
GRAND FRKS NWS   N/A     57 N/A N/A N9          N/A
DEVILS LAKE    LGT RAIN  57  56  96 N7        29.94S
FARGO          PTCLDY    56  54  93 W6        29.90R FOG
WAHPETON ARPT  CLOUDY    52  48  87 NW3       29.92R VSB<1/4
$$

 ***** WEATHER ACROSS CENTRAL AND WESTERN NORTH DAKOTA  *****

CITY           SKY/WX    TMP DP  RH WIND       PRES   REMARKS
BISMARCK       CLEAR     45  44  97 W3        30.00R FOG
MINOT          CLEAR     53  50  89 SW7       29.94S
JAMESTOWN      CLOUDY    55  55 100 CALM      29.94R FOG
MINOT AFB      CLEAR     50  49  97 W9        29.94R
GARRISON         N/A     49  49 100 SW3       29.98R
WILLISTON      CLEAR     45  42  89 CALM      29.99R
DICKINSON      PTCLDY    44  41  89 W7        30.01R
HETTINGER      FOG       38  38 100 CALM      30.05R VSB<1/4
$$

 *****  OTHER AIRPORT OBSERVATIONS IN OUR AREA  *****

CITY           SKY/WX    TMP DP  RH WIND       PRES   REMARKS
WALHALLA       FAIR      55  52  88 NW6       29.92R
GRAFTON AIRPOR CLOUDY    57  57 100 NW6       29.92R
VALLEY CITY AR FOG       54  54 100 NW6       29.95R VSB<1/4
CANDO          FOG       55  55 100 NW5       29.97R VSB 3/4
CAVALIER APRT  CLOUDY    57  55  94 NW5       29.90S
GWINNER        FAIR      55  55 100 W6        29.93R
SHEYENNE NWR     N/A     50  50 100 W2        29.95
ROLLA          CLOUDY    54  54 100 SW5       29.95S
 ***** THE ABOVE OBSERVATIONS ARE NON NWS ARE NOT QUALITY
       CONTROLLED AND MAY MIS-REPORT RAIN FOR SNOW...
$$

  *****  WEATHER ACROSS NORTHERN MINNESOTA  *****

CITY           SKY/WX    TMP DP  RH WIND       PRES   REMARKS
FLAG ISLAND    RAIN      54  52  94 N13       29.83S
WARROAD        DRIZZLE   54  50  87 NW6       29.86R
ROSEAU         LGT RAIN  55  50  82 NW6       29.86S
HALLOCK        CLOUDY    57  55  94 N9        29.89S
THF RVR FALLS  CLOUDY    57  54  88 NW6       29.90R
BAUDETTE       CLOUDY    54  52  93 NW12      29.83R FOG
WASKISH        LGT RAIN  55  54  94 W10       29.84R
CROOKSTON      CLOUDY    59  57  94 NW3       29.89S
GREENBUSH NDAW   N/A     55  55 100 NW6         N/A
$$
  *****  WEATHER ACROSS CENTRAL AND WEST MINNESOTA  *****

CITY           SKY/WX    TMP DP  RH WIND       PRES   REMARKS
FOSSTON        CLOUDY    54  54 100 W5        29.89R
BEMIDJI        CLOUDY    54  54  97 W8        29.86R
PARK RAPIDS    MOCLDY    57  54  89 NW10      29.87R
ELBOW LAKE     CLOUDY    56  56 100 W6        29.91R FOG
WADENA         CLOUDY    57  55  94 NW7       29.89R
DETROIT LAKES  CLOUDY    57  55  94 NW8       29.91R
MOORHEAD       MOCLDY    57  57 100 W5        29.91R
FERGUS FALLS   MOCLDY    57  57 100 NW6       29.88R FOG
MORRIS MN      CLEAR     54  54 100 W5        29.90R FOG
STAPLES        DRIZZLE   57  55  94 W8        29.88R
$$
  *****  WEATHER ELSEWHERE ACROSS MINNESOTA  *****

CITY           SKY/WX    TMP DP  RH WIND       PRES   REMARKS
DULUTH         CLOUDY    58  56  93 W8        29.79S FOG
INTRNTL FALLS  CLOUDY    55  54  96 NW7       29.79R FOG
ELY            DRIZZLE   57  57 100 CALM      29.78R
CLOQUET        CLOUDY    57  55  94 SW3       29.80R FOG
WHEATON        CLEAR     57  55  94 W3        29.93R FOG
BRAINERD       CLOUDY    59  57  93 W10G16    29.85R
HIBBING        LGT RAIN  57  57 100 W6        29.79R FOG
ALEXANDRIA     CLOUDY    59  56  89 NW13      29.90R
SAINT CLOUD    LGT RAIN  60  59  96 W10       29.86R
MINNEAPOLIS    MOCLDY    63  58  83 W13       29.87R
$$

  *****  WEATHER ACROSS SOUTH DAKOTA  *****

CITY           SKY/WX    TMP DP  RH WIND       PRES   REMARKS
SIOUX FALLS    PTCLDY    57  55  93 SW3       29.99R
BROOKINGS      CLEAR     57  55  93 W7        29.97R
WATERTOWN      CLEAR     56  53  90 W9        29.96R
HURON          PTCLDY    51  50  96 NW6       29.97R
SISSETON         N/A     56  54  93 N3        29.90R
ABERDEEN       CLEAR     55  51  86 W6        29.96R
MITCHELL       PTCLDY    58  57  97 W6        29.99R
PIERRE         CLEAR     51  49  92 SW7       30.01R
MOBRIDGE       CLEAR     53  49  86 CALM      29.99R
RAPID CITY     CLEAR     46  42  86 NW7       30.06S
$$

  *****  SOME WEATHER IN NEARBY STATES *****

CITY           SKY/WX    TMP DP  RH WIND       PRES   REMARKS
GLASGOW MT     CLEAR     47  38  71 SW3       29.99S
GREAT FALLS MT CLOUDY    44  35  70 S9        30.02F
CHEYENNE WY    CLEAR     42  35  76 W7        30.17R
SCOTTSBLUFF NE CLEAR     45  43  93 W6        30.09R
OMAHA NE       CLOUDY    56  53  90 E3        30.03R
DES MOINES IA  PTCLDY    59  55  87 W5        30.00R
DAVENPORT IA   CLEAR     64  58  80 SW12      29.96R
CHICAGO IL     PTCLDY    64  61  90 SW8       29.97R
EAU CLAIRE WI  CLOUDY    61  60  97 W8        29.84R
LA CROSSE WI   CLOUDY    64  60  87 W5        29.86R
$$

  *****  SOME NATIONAL WEATHER *****

CITY           SKY/WX    TMP DP  RH WIND       PRES   REMARKS
LA GUARDIA NY  MOSUNNY   75  61  61 S8        30.14R
RALEIGH NC     LGT RAIN  70  68  93 NE6       30.10S
ATLANTA GA     MOCLDY    69  60  73 NW3       30.13R
NEW ORLEANS LA PTCLDY    70  68  93 E3        30.06R
OKLAHOMA CITY  MOCLDY    67  66  97 SE6       30.07R FOG
ALBUQUERQUE NM PTCLDY    56  15  20 E7        30.11R
SALT LAKE CITY MOCLDY    59  41  51 S5        30.06R
LOS ANGELES CA CLOUDY    60  54  80 W3        29.96S
BOISE ID       CLEAR     51  35  54 SE9       30.02R
SEATTLE WA     CLOUDY    54  51  90 SW12      30.06R
$$

*** WEATHER ACROSS MANITOBA...SASKATCHEWAN AND ONTARIO ***
                ***ONTARIO***

CITY           SKY/WX    TMP DP  RH WIND       PRES   REMARKS
GERALDTON      DRZL/FOG  54  52  94 N5        29.77F VSB 1/2
THUNDER BAY    FOG       59  57  94 CALM      29.76R VSB 1
SIOUX LOOKOUT  DRIZZLE   52  52 100 NE3       29.81S FOG
TORONTO        MOSUNNY   72  64  78 SW3       30.05R
BIG TROUT LK   LGT RAIN  46  41  81 E7        30.03S
PICKLE LAKE    DRIZZLE   46  46 100 NE13G20   29.86  FOG
DRYDEN         CLOUDY    52  50  93 NE8       29.80S FOG
KENORA         LGT RAIN  52  52 100 N7        29.83S VSB 1
$$
                *** MANITOBA***

CITY           SKY/WX    TMP DP  RH WIND       PRES   REMARKS
BRANDON        LGT RAIN  52  52 100 CALM      29.94S FOG
DAUPHIN        CLOUDY    50  48  93 W3        29.94S
ISLAND LAKE    CLOUDY    50  46  87 E9        29.98
PILOT MOUND      N/A     54  52  94 W5          N/A
THE PAS        CLOUDY    46  43  87 NE6       29.97S
THOMPSON       DRIZZLE   46  45  93 E6        30.02F FOG
WINNIPEG       CLOUDY    54  52  94 N8        29.90S
LYNN LAKE      CLOUDY    45  41  87 E6        30.03S
CHURCHILL      CLOUDY    27  27 100 E9        30.25R FOG     WCI  17
$$
                ***SASKATCHEWAN***

CITY           SKY/WX    TMP DP  RH WIND       PRES   REMARKS
ESTEVAN        NOT AVBL
KINDERSLEY     PTCLDY    43  41  93 S9        29.87S
LLOYDMINSTER   FOG       39  39 100 W7        29.86S VSB 1/8
PRINCE ALBERT  CLOUDY    48  46  93 E10       29.86S
REGINA         PTCLDY    41  41 100 S8        29.92S
YORKTON        CLOUDY    50  50 100 S5        29.91R
N. BATTLEFORD  FOG       41  41 100 SW5       29.88R VSB 1/4
LA RONGE       CLOUDY    48  43  81 E6        29.93F
SASKATOON      MOCLDY    45  45 100 SW7       29.89S
SWIFT CURRENT  CLEAR     45  39  81 SW13      29.92R
$$
NOTE: THESE ARE AUTOMATED STATIONS WITH LIMITED QUALITY CONTROL
      "FAIR" INDICATES FEW OR NO CLOUDS BELOW 12,000 FEET WITH NO
      SIGNIFICANT WEATHER AND/OR OBSTRUCTIONS TO VISIBILITY.
      SKY/WX - SKY CONDITION AND SIGNIFICANT WEATHER.
      TMP - AIR TEMPERATURE.    DP   - DEWPOINT TEMPERATURE.
      RH  - RELATIVE HUMIDITY.  PRES - PRESSURE.
      HX  - HEAT INDEX.         WCI  - WIND CHILL INDEX.
$




USA.gov is the U.S. government's official web portal to all federal, state and local government web resources and services.